Overview Statistics Trail Chart Weather Telemetry Raw packets
 

This is the latest recevied weather packets stored in our database for station/object KC5DAQ-2. If no packets are shown the sender has not sent any weather packets the latest 10 day(s).

<< 509 510 511 512 513 514 515 >>
Time Temp. Humidity Pressure Rain* Wind** Luminosity Snow
1787954493 26.67° C 87% 1006.5 hPa 9.91 mm - 16 W/m² -
1787954432 26.67° C 87% 1006.6 hPa 9.91 mm - 16 W/m² -
1787954368 27.22° C 86% 1006.5 hPa 9.91 mm - 16 W/m² -
1787954307 27.22° C 86% 1006.6 hPa 9.91 mm - 14 W/m² -
1787954245 27.22° C 86% 1006.6 hPa 9.91 mm - 14 W/m² -
1787954179 27.22° C 86% 1006.6 hPa 9.91 mm - 14 W/m² -
1787954113 27.78° C 85% 1006.6 hPa 9.91 mm - 14 W/m² -
1787954051 27.78° C 84% 1006.6 hPa 9.91 mm - 14 W/m² -
1787953986 27.78° C 84% 1006.6 hPa 9.65 mm - 14 W/m² -
1787953925 27.78° C 84% 1006.7 hPa 9.65 mm - 14 W/m² -
1787953863 27.78° C 84% 1006.7 hPa 9.65 mm - 16 W/m² -
1787953805 28.33° C 83% 1006.7 hPa 9.65 mm - 26 W/m² -
1787953741 28.33° C 83% 1006.7 hPa 9.65 mm - 26 W/m² -
1787953681 28.33° C 82% 1006.8 hPa 9.4 mm - 26 W/m² -
1787953621 28.33° C 82% 1007 hPa 9.4 mm - 26 W/m² -
1787953561 28.89° C 82% 1007 hPa 9.14 mm - 26 W/m² -
1787953500 28.89° C 82% 1007 hPa 9.14 mm - 26 W/m² -
1787953441 29.44° C 82% 1007.1 hPa 8.64 mm - 26 W/m² -
1787953380 29.44° C 82% 1007.1 hPa 8.13 mm - 26 W/m² -
1787953321 29.44° C 82% 1007.2 hPa 8.13 mm - 26 W/m² -
1787953261 30° C 82% 1007.4 hPa 7.87 mm - - -
1787953201 30° C 82% 1007.5 hPa 7.87 mm - - -
1787953142 30° C 82% 1007.6 hPa 7.87 mm - 7 W/m² -
1787953081 30.56° C 82% 1007.8 hPa 7.37 mm - 7 W/m² -
1787953022 30.56° C 81% 1007.8 hPa 7.11 mm - 7 W/m² -

* Rain latest hour (hover to see other rain measurements)
** Current wind speed in m/s (hover to see current wind gust speed)